1500004800.91,43807,17.88,73846.3,-1.35,-37.99,-38.61,0,*57
1500004802.17,43808,17.88,73844.3,-1.35,-37.57,-38.29,0,*56
1500004803.43,43809,17.88,73846.0,-1.39,-37.51,-38.17,0,*50
1500004804.71,43810,17.88,73846.0,-1.39,-37.63,-38.23,0,*5E
1500004806.0,43811,17.88,73846.3,-1.39,-37.69,-38.23,0,*55
1500004807.22,43812,17.88,73844.8,-1.41,-38.11,-38.73,0,*5C
1500004808.48,43813,17.88,73844.3,-1.39,-37.99,-38.43,0,*5E
1500004809.72,43814,17.88,73844.8,-1.39,-37.87,-38.43,0,*56
1500004810.98,43815,17.88,73844.3,-1.39,-37.81,-38.35,0,*50
1500004812.24,43816,17.88,73846.0,-1.39,-37.99,-38.55,0,*5C
1500004813.48,43817,17.88,73846.5,-1.39,-37.87,-38.35,0,*54
1500004814.74,43818,17.88,73846.5,-1.39,-37.63,-38.17,0,*51
1500004815.98,43819,17.88,73844.3,-1.39,-37.87,-38.43,0,*5B
1500004817.24,43820,17.88,73850.0,-1.39,-37.99,-38.61,0,*5E
1500004818.47,43821,17.88,73850.0,-1.39,-37.87,-38.43,0,*50
1500004819.71,43822,17.88,73848.0,-1.41,-37.69,-38.43,0,*5C
1500004820.95,43823,17.88,73848.3,-1.39,-37.87,-38.43,0,*52
1500004822.2,43824,17.88,73844.0,-1.39,-37.99,-38.61,0,*5A
1500004823.46,43825,17.88,73848.3,-1.39,-37.99,-38.61,0,*5B
1500004824.69,43826,17.88,73850.5,-1.39,-38.05,-38.61,0,*52
1500004825.93,43827,17.88,73848.8,-1.39,-37.87,-38.43,0,*56
1500004827.19,43828,17.88,73844.8,-1.39,-37.69,-38.43,0,*59
1500004828.45,43829,17.88,73848.3,-1.41,-37.69,-38.29,0,*5B
1500004829.69,43830,17.88,73850.5,-1.39,-37.87,-38.55,0,*57
1500004830.93,43831,17.88,73848.0,-1.39,-37.87,-38.55,0,*56
1500004832.18,43832,17.88,73844.5,-1.41,-38.11,-38.67,0,*5B
1500004833.42,43833,17.88,73850.8,-1.39,-37.87,-38.35,0,*52
1500004834.63,43834,17.88,73850.0,-1.41,-38.05,-38.61,0,*5E
1500004835.84,43835,17.88,73846.0,-1.41,-37.87,-38.43,0,*5A
1500004837.12,43836,17.88,73848.3,-1.39,-37.63,-38.23,0,*5A
1500004838.36,43837,17.88,73844.8,-1.39,-38.17,-38.61,0,*51
1500004839.61,43838,17.88,73850.8,-1.41,-38.11,-38.67,0,*51
1500004840.84,43839,17.88,73848.3,-1.41,-37.93,-38.61,0,*53
1500004842.05,43840,17.88,73850.3,-1.41,-37.87,-38.43,0,*58
1500004843.27,43841,17.88,73850.8,-1.41,-38.11,-38.73,0,*5A
1500004844.53,43842,17.88,73848.0,-1.39,-37.69,-38.43,0,*55
1500004845.74,43843,17.88,73848.3,-1.41,-37.87,-38.43,0,*5B
1500004847.0,43844,17.88,73848.5,-1.41,-37.93,-38.67,0,*5F
1500004848.2,43845,17.88,73846.5,-1.41,-37.75,-38.43,0,*50
1500004849.43,43846,17.94,73850.3,-1.41,-37.69,-38.43,0,*5E
1500004850.69,43847,17.88,73850.0,-1.41,-38.11,-38.67,0,*59
1500004851.92,43848,17.88,73848.0,-1.41,-37.93,-38.43,0,*55
1500004853.17,43849,17.88,73848.3,-1.41,-37.93,-38.67,0,*52
1500004854.41,43850,17.88,73848.0,-1.41,-37.69,-38.43,0,*59
1500004855.64,43851,17.88,73850.8,-1.43,-37.75,-38.43,0,*57
1500004856.88,43852,17.94,73848.8,-1.43,-37.75,-38.43,0,*54
1500004858.14,43853,17.94,73850.0,-1.43,-37.87,-38.49,0,*52
1500004859.4,43854,17.88,73848.3,-1.41,-37.93,-38.49,0,*52
1500004860.66,43855,17.88,73848.3,-1.41,-37.69,-38.23,0,*5A
1500004861.88,43856,17.88,73848.5,-1.41,-37.57,-38.11,0,*55
1500004863.17,43857,17.94,73848.5,-1.39,-37.81,-38.49,0,*5D
1500004864.43,43858,17.94,73850.5,-1.41,-37.93,-38.49,0,*5E
1500004865.66,43859,17.94,73850.0,-1.41,-37.93,-38.61,0,*55
1500004866.89,43860,17.88,73850.0,-1.41,-37.93,-38.61,0,*5F
1500004868.15,43861,17.94,73852.3,-1.41,-37.93,-38.49,0,*54
1500004869.4,43862,17.88,73850.5,-1.41,-38.11,-38.67,0,*5E
1500004870.67,43863,17.88,73848.0,-1.39,-37.81,-38.43,0,*50
1500004871.92,43864,17.88,73848.8,-1.41,-37.93,-38.67,0,*5D
1500004873.17,43865,17.88,73850.8,-1.41,-38.11,-38.67,0,*59
1500004874.38,43866,17.88,73850.8,-1.41,-37.75,-38.43,0,*51
1500004875.65,43867,17.88,73848.8,-1.39,-37.81,-38.43,0,*54
1500004876.9,43868,17.94,73850.8,-1.39,-37.51,-38.17,0,*57
1500004878.11,43869,17.94,73852.3,-1.41,-38.05,-38.61,0,*56
1500004879.37,43870,17.88,73850.5,-1.39,-37.99,-38.55,0,*5C
1500004880.6,43871,17.88,73848.8,-1.41,-38.05,-38.67,0,*59
1500004881.85,43872,17.94,73850.5,-1.41,-37.93,-38.49,0,*56
1500004883.06,43873,17.94,73852.5,-1.41,-37.75,-38.43,0,*55
1500004884.32,43874,17.88,73850.5,-1.43,-37.87,-38.49,0,*57
1500004885.53,43875,17.94,73854.5,-1.41,-38.05,-38.61,0,*5B
1500004886.8,43876,17.88,73850.3,-1.45,-37.81,-38.49,0,*55
1500004888.03,43877,17.94,73852.5,-1.41,-37.75,-38.49,0,*5B
1500004889.26,43878,17.94,73850.3,-1.41,-37.93,-38.61,0,*56
1500004890.52,43879,17.94,73850.5,-1.43,-37.93,-38.43,0,*55
1500004891.81,43880,17.94,73852.8,-1.43,-37.93,-38.49,0,*59
1500004893.07,43881,17.94,73852.0,-1.43,-37.93,-38.43,0,*52
1500004894.31,43882,17.94,73850.3,-1.43,-37.75,-38.43,0,*59
1500004895.57,43883,17.94,73848.5,-1.43,-37.87,-38.49,0,*5F
1500004896.83,43884,17.94,73850.0,-1.43,-38.05,-38.67,0,*51
1500004898.04,43885,17.94,73850.3,-1.41,-37.75,-38.43,0,*5C
1500004899.3,43886,17.94,73848.8,-1.41,-37.69,-38.29,0,*5E
1500004900.53,43887,17.94,73848.3,-1.41,-37.57,-38.23,0,*58
1500004901.79,43888,17.94,73848.8,-1.41,-37.93,-38.49,0,*53
1500004903.0,43889,17.94,73850.3,-1.41,-37.87,-38.43,0,*5D
1500004904.26,43890,17.94,73848.8,-1.43,-37.57,-38.29,0,*56
1500004905.47,43891,17.94,73850.3,-1.41,-37.75,-38.43,0,*59
1500004906.73,43892,17.94,73854.3,-1.43,-37.75,-38.29,0,*54
1500004907.98,43893,17.94,73850.3,-1.43,-37.45,-37.93,0,*58
1500004909.24,43894,17.94,73852.5,-1.41,-37.69,-38.29,0,*5D
1500004910.44,43895,17.94,73850.5,-1.41,-37.45,-38.05,0,*5C
1500004911.67,43896,17.94,73850.3,-1.41,-36.91,-37.45,0,*5C
1500004912.9,43897,17.94,73848.5,-1.41,-37.33,-37.93,0,*5F
1500004914.12,43898,17.94,73848.5,-1.39,-37.45,-38.17,0,*5D
1500004915.38,43899,17.94,73848.0,-1.39,-37.51,-38.17,0,*59
1500004916.59,43900,17.94,73850.3,-1.41,-37.15,-37.57,0,*5C
1500004917.87,43901,17.94,73848.5,-1.39,-37.09,-37.63,0,*58
1500004919.16,43902,17.94,73848.0,-1.39,-37.39,-37.99,0,*5D
1500004920.39,43903,17.94,73848.0,-1.35,-37.57,-38.17,0,*51
1500004921.62,43904,17.94,73850.3,-1.35,-37.57,-38.17,0,*56
1500004922.85,43905,17.94,73850.3,-1.35,-37.57,-38.17,0,*57
1500004924.1,43906,17.94,73850.3,-1.35,-37.45,-38.11,0,*51
1500004925.36,43907,17.94,73850.5,-1.35,-37.15,-37.81,0,*53
1500004926.62,43908,17.94,73848.5,-1.35,-37.21,-37.75,0,*50
1500004927.87,43909,17.94,73852.5,-1.35,-37.63,-38.17,0,*5C
1500004929.13,43910,17.94,73848.3,-1.35,-37.75,-38.29,0,*5E
1500004930.41,43911,17.94,73848.8,-1.35,-37.39,-37.93,0,*59
1500004931.67,43912,17.94,73852.8,-1.35,-37.33,-37.81,0,*53
1500004932.9,43913,17.94,73850.0,-1.35,-37.45,-38.17,0,*53
1500004934.15,43914,17.94,73850.3,-1.31,-37.45,-38.11,0,*56
1500004935.38,43915,17.94,73848.8,-1.35,-37.45,-38.17,0,*55
1500004936.63,43916,17.94,73852.5,-1.35,-37.33,-37.81,0,*57
1500004937.92,43917,17.94,73848.8,-1.35,-37.39,-37.99,0,*55
1500004939.18,43918,17.94,73850.8,-1.35,-37.21,-37.75,0,*51
1500004940.44,43919,17.94,73850.3,-1.35,-37.33,-37.81,0,*58
1500004941.66,43920,17.94,73850.8,-1.31,-37.57,-38.17,0,*54
1500004942.92,43921,17.94,73852.3,-1.35,-37.63,-38.17,0,*56
1500004944.18,43922,17.94,73848.5,-1.31,-37.45,-37.99,0,*5C
1500004945.4,43923,17.94,73850.0,-1.35,-37.57,-38.17,0,*53
1500004946.63,43924,17.94,73852.0,-1.35,-37.57,-38.17,0,*54
1500004947.89,43925,17.94,73852.3,-1.31,-37.75,-38.29,0,*5C
1500004949.14,43926,17.94,73852.0,-1.35,-37.45,-38.11,0,*53
1500004950.4,43927,17.94,73854.0,-1.31,-37.63,-38.35,0,*54
1500004951.65,43928,17.94,73852.8,-1.31,-37.93,-38.35,0,*54
1500004952.94,43929,17.94,73848.8,-1.31,-37.63,-38.29,0,*57
1500004954.19,43930,17.94,73852.3,-1.31,-37.45,-38.11,0,*50
1500004955.44,43931,17.94,73854.5,-1.35,-37.45,-38.11,0,*55
1500004956.66,43932,17.94,73848.5,-1.31,-37.57,-38.17,0,*57
1500004957.91,43933,17.94,73848.5,-1.31,-37.45,-37.93,0,*56
1500004959.17,43934,17.94,73852.0,-1.29,-37.51,-38.11,0,*58
1500004960.45,43935,17.94,73848.0,-1.31,-37.63,-38.29,0,*5A
1500004961.68,43936,17.94,73852.3,-1.29,-37.57,-38.29,0,*57
1500004962.93,43937,17.94,73852.3,-1.31,-37.45,-38.11,0,*57
1500004964.18,43938,17.94,73854.0,-1.31,-37.45,-37.99,0,*57
1500004965.43,43939,17.94,73850.8,-1.31,-37.45,-38.11,0,*59
1500004966.69,43940,17.94,73852.5,-1.31,-37.21,-37.75,0,*58
1500004967.92,43941,17.94,73852.3,-1.29,-37.33,-37.93,0,*5B
1500004969.17,43942,17.94,73850.3,-1.29,-37.69,-38.11,0,*52
1500004970.46,43943,17.94,73848.8,-1.27,-37.51,-38.23,0,*57
1500004971.68,43944,17.94,73848.8,-1.29,-37.39,-38.05,0,*54
1500004972.93,43945,17.94,73848.8,-1.31,-37.45,-38.11,0,*52
1500004974.14,43946,17.94,73848.3,-1.29,-37.27,-37.75,0,*51
1500004975.37,43947,17.94,73852.8,-1.27,-37.27,-37.87,0,*53
1500004976.62,43948,17.94,73850.8,-1.29,-37.39,-38.11,0,*5D
1500004977.87,43949,17.94,73852.0,-1.27,-37.15,-37.69,0,*5C
1500004979.07,43950,17.94,73850.5,-1.29,-37.33,-38.05,0,*5B
1500004980.33,43951,17.94,73852.8,-1.27,-37.39,-38.05,0,*5E
1500004981.6,43952,17.94,73848.3,-1.27,-37.51,-38.11,0,*56
1500004982.89,43953,17.94,73850.0,-1.27,-37.69,-38.23,0,*5D
1500004984.15,43954,17.94,73852.3,-1.27,-37.75,-38.23,0,*57
1500004985.38,43955,17.94,73850.3,-1.27,-37.75,-38.43,0,*50
1500004986.6,43956,17.94,73850.8,-1.29,-37.39,-38.05,0,*57
1500004987.88,43957,17.94,73852.8,-1.27,-37.51,-38.11,0,*53
1500004989.12,43958,17.94,73852.0,-1.29,-37.87,-38.29,0,*52
1500004990.34,43959,17.94,73852.8,-1.25,-37.51,-38.17,0,*59
1500004991.6,43960,17.94,73852.0,-1.27,-37.75,-38.23,0,*50
1500004992.84,43961,17.94,73850.5,-1.29,-37.87,-38.49,0,*5E
1500004994.05,43962,17.94,73854.5,-1.29,-38.05,-38.55,0,*55
1500004995.31,43963,17.94,73854.0,-1.27,-37.87,-38.49,0,*52
1500004996.57,43964,17.94,73848.3,-1.29,-37.51,-38.23,0,*5C
1500004997.82,43965,17.94,73852.3,-1.29,-37.69,-38.29,0,*5C
1500004999.11,43966,17.94,73852.0,-1.27,-37.69,-38.23,0,*5B
1500005000.34,43967,17.94,73850.5,-1.29,-37.57,-38.23,0,*59
1500005001.6,43968,17.94,73852.5,-1.27,-37.87,-38.49,0,*59
1500005002.89,43969,17.94,73852.8,-1.27,-37.93,-38.49,0,*5D
1500005004.1,43970,17.94,73852.0,-1.29,-37.87,-38.55,0,*53
1500005005.36,43971,17.94,73850.5,-1.27,-37.57,-38.23,0,*50
1500005006.59,43972,17.94,73852.5,-1.29,-37.75,-38.29,0,*57
1500005007.84,43973,17.94,73848.5,-1.27,-37.75,-38.49,0,*5E
1500005009.1,43974,17.94,73846.0,-1.29,-38.11,-38.67,0,*56
1500005010.35,43975,17.94,73852.5,-1.29,-37.93,-38.49,0,*5E
1500005011.58,43976,17.94,73850.8,-1.29,-37.75,-38.49,0,*55
1500005012.81,43977,17.94,73854.5,-1.29,-37.75,-38.49,0,*54
1500005014.1,43978,17.94,73850.5,-1.27,-37.51,-38.23,0,*5F
1500005015.35,43979,18.0,73854.0,-1.29,-37.51,-38.23,0,*50
1500005016.59,43980,17.94,73852.0,-1.29,-37.75,-38.29,0,*5A
1500005017.8,43981,17.94,73852.8,-1.29,-37.87,-38.43,0,*5A
1500005019.03,43982,17.94,73852.8,-1.29,-37.87,-38.49,0,*53
1500005020.27,43983,17.94,73852.0,-1.29,-37.93,-38.55,0,*5A
1500005021.48,43984,17.94,73848.0,-1.29,-37.87,-38.43,0,*5F
1500005022.74,43985,18.0,73854.0,-1.29,-37.69,-38.23,0,*58
1500005023.95,43986,17.94,73854.8,-1.29,-37.87,-38.55,0,*5A
1500005025.21,43987,17.94,73852.8,-1.29,-37.93,-38.49,0,*53
1500005026.44,43988,18.0,73854.5,-1.29,-37.57,-38.23,0,*58
1500005027.66,43989,17.94,73850.3,-1.29,-37.39,-38.05,0,*55
1500005028.9,43990,17.94,73848.5,-1.29,-37.87,-38.49,0,*50
1500005030.16,43991,17.94,73854.0,-1.29,-37.93,-38.49,0,*54
1500005031.41,43992,18.0,73854.0,-1.29,-37.93,-38.49,0,*57
1500005032.66,43993,17.94,73852.5,-1.31,-37.99,-38.73,0,*5C
1500005033.94,43994,17.94,73848.8,-1.31,-37.93,-38.49,0,*58
1500005035.22,43995,17.94,73850.8,-1.31,-37.63,-38.29,0,*50
1500005036.45,43996,17.94,73852.0,-1.31,-37.57,-38.17,0,*59
1500005037.66,43997,17.94,73852.3,-1.29,-37.75,-38.43,0,*50
1500005038.91,43998,17.94,73854.3,-1.31,-37.99,-38.55,0,*53
1500005040.18,43999,17.94,73852.8,-1.31,-37.81,-38.35,0,*5D
1500005041.43,44000,18.0,73856.0,-1.31,-37.99,-38.73,0,*58
1500005042.68,44001,17.94,73848.8,-1.31,-38.11,-38.61,0,*55
1500005043.9,44002,17.94,73850.5,-1.29,-38.11,-38.73,0,*5C
1500005045.15,44003,18.0,73852.8,-1.31,-37.99,-38.61,0,*58
1500005046.41,44004,17.94,73854.5,-1.31,-37.99,-38.61,0,*5F
1500005047.69,44005,18.0,73854.5,-1.31,-37.93,-38.49,0,*5E
1500005048.91,44006,18.0,73854.3,-1.31,-37.75,-38.17,0,*5E
1500005050.15,44007,17.94,73852.0,-1.35,-37.75,-38.35,0,*5B
1500005051.37,44008,17.94,73848.8,-1.31,-37.57,-38.17,0,*50
1500005052.63,44009,17.94,73848.3,-1.31,-37.75,-38.29,0,*5C
1500005053.88,44010,17.94,73850.0,-1.31,-37.99,-38.61,0,*5A
1500005055.12,44011,18.0,73852.5,-1.31,-37.75,-38.35,0,*58
1500005056.4,44012,18.0,73850.5,-1.31,-37.63,-38.29,0,*51
1500005057.66,44013,17.94,73852.0,-1.31,-37.81,-38.55,0,*57
1500005058.95,44014,18.0,73852.3,-1.31,-37.81,-38.49,0,*5D
1500005060.21,44015,18.0,73852.3,-1.31,-37.99,-38.55,0,*58
1500005061.44,44016,18.0,73858.0,-1.35,-37.45,-38.17,0,*58
1500005062.66,44017,18.0,73854.0,-1.35,-37.57,-38.17,0,*5A
1500005063.92,44018,18.0,73850.5,-1.31,-37.99,-38.55,0,*55
1500005065.15,44019,18.0,73854.8,-1.31,-37.75,-38.55,0,*56
1500005066.38,44020,18.0,73852.8,-1.31,-37.45,-38.17,0,*59
1500005067.61,44021,18.0,73854.3,-1.29,-37.75,-38.49,0,*59
1500005068.86,44022,18.0,73852.3,-1.31,-37.99,-38.73,0,*58
1500005070.1,44023,18.0,73852.5,-1.31,-38.11,-38.73,0,*56
1500005071.33,44024,18.0,73858.3,-1.35,-38.17,-38.73,0,*53
1500005072.59,44025,18.0,73852.8,-1.35,-37.81,-38.35,0,*50
1500005073.85,44026,18.0,73852.3,-1.35,-37.93,-38.35,0,*50
1500005075.11,44027,18.0,73852.5,-1.31,-37.93,-38.55,0,*53
1500005076.36,44028,18.0,73854.3,-1.35,-37.93,-38.73,0,*5C
1500005077.61,44029,18.0,73854.3,-1.31,-38.11,-38.61,0,*5F
1500005078.89,44030,18.0,73854.8,-1.31,-37.93,-38.49,0,*58
1500005080.15,44031,18.0,73852.3,-1.31,-37.99,-38.61,0,*59
1500005081.4,44032,18.0,73852.5,-1.31,-37.99,-38.61,0,*5A
1500005082.66,44033,18.0,73852.5,-1.35,-37.99,-38.61,0,*5F
1500005083.92,44034,17.94,73848.5,-1.35,-37.99,-38.61,0,*58
1500005085.16,44035,18.0,73852.3,-1.39,-37.87,-38.55,0,*5D
1500005086.41,44036,18.0,73854.5,-1.39,-37.99,-38.61,0,*56
1500005087.7,44037,18.0,73854.0,-1.39,-37.99,-38.67,0,*51
1500005088.99,44038,18.0,73852.5,-1.35,-37.81,-38.49,0,*57
1500005090.25,44039,18.0,73852.5,-1.39,-37.99,-38.43,0,*59
1500005091.51,44040,18.0,73854.0,-1.39,-37.69,-38.35,0,*59
1500005092.74,44041,18.0,73854.5,-1.35,-37.75,-38.35,0,*59
1500005094.0,44042,18.0,73854.3,-1.39,-37.69,-38.35,0,*5B
1500005095.25,44043,18.0,73852.8,-1.39,-38.05,-38.67,0,*58
1500005096.51,44044,18.0,73854.3,-1.39,-38.17,-38.79,0,*53
1500005097.77,44045,18.0,73852.3,-1.39,-38.17,-38.79,0,*52
1500005099.03,44046,18.0,73852.0,-1.39,-37.81,-38.43,0,*58
1500005100.28,44047,18.0,73854.8,-1.31,-37.63,-38.17,0,*5C
1500005101.56,44048,18.0,73854.0,-1.39,-38.23,-38.79,0,*58
1500005102.83,44049,18.0,73852.3,-1.39,-37.81,-38.35,0,*56
1500005104.11,44050,18.0,73850.0,-1.39,-37.99,-38.67,0,*50
1500005105.35,44051,18.0,73852.3,-1.39,-37.87,-38.55,0,*5F
1500005106.61,44052,18.0,73856.3,-1.39,-38.17,-38.67,0,*5B
1500005107.89,44053,18.0,73850.5,-1.39,-37.99,-38.49,0,*5F
1500005109.11,44054,18.0,73852.8,-1.41,-38.11,-38.73,0,*51
1500005110.37,44055,18.0,73854.5,-1.39,-38.17,-38.79,0,*53
1500005111.62,44056,18.0,73856.3,-1.39,-38.05,-38.67,0,*5C
1500005112.88,44057,18.0,73852.0,-1.39,-37.99,-38.61,0,*51
1500005114.11,44058,18.0,73852.0,-1.41,-37.93,-38.61,0,*5B
1500005115.35,44059,18.0,73852.5,-1.41,-37.99,-38.61,0,*50
1500005116.58,44060,18.0,73852.5,-1.39,-37.87,-38.35,0,*5B
1500005117.82,44061,18.0,73852.0,-1.39,-38.05,-38.61,0,*5E
1500005119.07,44062,18.0,73852.3,-1.39,-38.17,-38.79,0,*57
1500005120.31,44063,18.0,73852.0,-1.41,-37.87,-38.49,0,*5C
1500005121.55,44064,18.0,73850.8,-1.41,-37.87,-38.49,0,*5B
1500005122.8,44065,18.0,73848.0,-1.39,-38.05,-38.67,0,*5C
1500005124.03,44066,18.0,73854.5,-1.41,-38.29,-38.85,0,*52
1500005125.25,44067,18.0,73852.0,-1.41,-38.11,-38.73,0,*51
1500005126.48,44068,18.0,73858.0,-1.41,-38.11,-38.73,0,*5E
1500005127.7,44069,18.0,73852.5,-1.41,-38.11,-38.73,0,*5F
1500005128.95,44070,18.0,73852.0,-1.39,-37.99,-38.61,0,*54
1500005130.18,44071,18.0,73852.3,-1.41,-38.23,-38.73,0,*57
1500005131.43,44072,18.0,73854.0,-1.41,-38.11,-38.91,0,*59
1500005132.65,44073,18.0,73854.0,-1.41,-38.23,-38.97,0,*5F
1500005133.87,44074,18.0,73856.8,-1.41,-38.11,-38.73,0,*53
1500005135.1,44075,18.0,73850.8,-1.41,-37.93,-38.61,0,*54
1500005136.33,44076,18.0,73852.5,-1.41,-38.05,-38.67,0,*51
1500005137.54,44077,18.0,73852.5,-1.41,-38.05,-38.61,0,*56
1500005138.77,44078,18.0,73852.8,-1.41,-37.93,-38.61,0,*59
1500005140.0,44079,18.0,73848.0,-1.41,-37.87,-38.49,0,*57
1500005141.26,44080,18.0,73854.8,-1.41,-37.93,-38.67,0,*58
1500005142.52,44081,18.0,73852.5,-1.41,-37.69,-38.29,0,*56
1500005143.8,44082,18.0,73852.5,-1.39,-37.51,-38.23,0,*5B
1500005145.06,44083,18.0,73850.8,-1.41,-37.69,-38.29,0,*54
1500005146.3,44084,18.0,73854.0,-1.41,-37.57,-38.29,0,*5E
1500005147.56,44085,18.0,73852.3,-1.39,-37.81,-38.43,0,*57
1500005148.77,44086,18.0,73852.0,-1.41,-37.75,-38.43,0,*50
1500005150.0,44087,18.0,73852.0,-1.41,-37.75,-38.49,0,*5B
1500005151.23,44088,18.0,73854.3,-1.41,-37.87,-38.49,0,*59
1500005152.46,44089,18.0,73852.8,-1.41,-38.05,-38.67,0,*51
1500005153.73,44090,18.0,73854.3,-1.39,-37.81,-38.43,0,*53
1500005154.96,44091,18.0,73856.3,-1.41,-37.69,-38.43,0,*5B
1500005156.22,44092,18.0,73852.5,-1.41,-37.51,-38.23,0,*55
1500005157.45,44093,18.0,73852.0,-1.41,-37.93,-38.61,0,*5C
1500005158.65,44094,18.0,73854.3,-1.41,-38.05,-38.73,0,*58
1500005159.85,44095,18.0,73854.8,-1.41,-38.05,-38.61,0,*5A
1500005161.07,44096,18.0,73854.0,-1.41,-37.87,-38.43,0,*5C
1500005162.27,44097,18.0,73854.5,-1.41,-37.75,-38.43,0,*50
1500005163.48,44098,18.0,73854.5,-1.41,-37.57,-38.43,0,*5F
1500005164.69,44099,18.0,73854.0,-1.41,-37.33,-37.87,0,*5B
1500005165.94,44100,18.0,73854.0,-1.41,-37.21,-37.69,0,*59
1500005167.23,44101,18.0,73852.3,-1.35,-37.81,-38.49,0,*5C
1500005168.47,44102,18.0,73852.5,-1.41,-37.87,-38.49,0,*5A
1500005169.76,44103,18.0,73848.3,-1.39,-36.91,-37.63,0,*55
1500005170.99,44104,18.0,73854.0,-1.41,-37.27,-37.81,0,*5D
1500005172.28,44105,18.0,73850.8,-1.39,-37.63,-38.23,0,*54
1500005173.51,44106,18.0,73852.3,-1.39,-37.87,-38.35,0,*5A
1500005174.75,44107,18.0,73854.8,-1.39,-37.87,-38.43,0,*5A
1500005176.01,44108,18.0,73850.0,-1.39,-37.99,-38.55,0,*5D
1500005177.3,44109,18.0,73852.5,-1.35,-37.93,-38.49,0,*57
1500005178.56,44110,18.0,73854.8,-1.39,-37.69,-38.35,0,*5D
1500005179.84,44111,18.06,73854.8,-1.39,-37.51,-38.23,0,*50
1500005181.1,44112,18.0,73848.8,-1.39,-37.69,-38.35,0,*5F
1500005182.37,44113,18.06,73856.3,-1.39,-37.81,-38.55,0,*5E
1500005183.6,44114,18.0,73854.0,-1.41,-37.93,-38.61,0,*52
1500005184.87,44115,18.06,73858.0,-1.39,-37.81,-38.35,0,*5E
1500005186.15,44116,18.0,73850.8,-1.39,-37.63,-38.23,0,*56
1500005187.41,44117,18.0,73848.5,-1.39,-37.51,-38.17,0,*51
1500005188.67,44118,18.0,73850.8,-1.39,-37.45,-37.99,0,*52
1500005189.93,44119,18.0,73852.0,-1.39,-37.81,-38.43,0,*53
1500005191.17,44120,18.06,73854.0,-1.39,-37.87,-38.55,0,*58
1500005192.43,44121,18.0,73852.3,-1.39,-37.99,-38.55,0,*56
1500005193.69,44122,18.0,73852.3,-1.39,-38.05,-38.67,0,*5E
1500005194.94,44123,18.0,73854.5,-1.35,-37.75,-38.49,0,*57
1500005196.2,44124,18.06,73856.3,-1.39,-37.99,-38.61,0,*54
1500005197.44,44125,18.06,73852.8,-1.39,-37.87,-38.35,0,*5B
1500005198.7,44126,18.06,73852.8,-1.39,-37.69,-38.35,0,*58
1500005199.93,44127,18.0,73852.3,-1.35,-37.45,-38.17,0,*5B
1500005201.17,44128,18.06,73856.5,-1.39,-37.87,-38.61,0,*57
1500005202.43,44129,18.0,73852.3,-1.39,-37.81,-38.61,0,*50
1500005203.68,44130,18.06,73852.8,-1.39,-37.51,-38.05,0,*57
1500005204.91,44131,18.06,73854.5,-1.41,-37.57,-38.23,0,*5B
1500005206.17,44132,18.0,73852.0,-1.39,-37.69,-38.35,0,*5D
1500005207.44,44133,18.0,73852.0,-1.39,-37.81,-38.43,0,*5B
1500005208.72,44134,18.0,73852.0,-1.35,-37.63,-38.29,0,*50
1500005210.01,44135,18.06,73854.3,-1.35,-37.63,-38.29,0,*51
1500005211.27,44136,18.06,73854.3,-1.31,-37.81,-38.35,0,*57
1500005212.53,44137,18.06,73854.3,-1.35,-37.99,-38.61,0,*5A
1500005213.76,44138,18.0,73852.3,-1.35,-37.75,-38.35,0,*56
1500005215.01,44139,18.06,73852.3,-1.35,-37.45,-38.11,0,*52
1500005216.24,44140,18.06,73852.8,-1.31,-37.57,-38.17,0,*5D
1500005217.52,44141,18.06,73854.0,-1.35,-37.93,-38.49,0,*5B
1500005218.78,44142,18.06,73852.3,-1.35,-37.57,-38.29,0,*56
1500005220.01,44143,18.06,73854.5,-1.35,-37.57,-38.17,0,*5A
1500005221.27,44144,18.06,73854.5,-1.35,-37.93,-38.55,0,*53
1500005222.55,44145,18.06,73854.8,-1.35,-37.93,-38.49,0,*5F
1500005223.84,44146,18.0,73852.5,-1.35,-37.81,-38.49,0,*5F
1500005225.1,44147,18.06,73852.5,-1.35,-37.75,-38.29,0,*53
1500005226.33,44148,18.06,73856.0,-1.35,-37.57,-38.17,0,*51
1500005227.56,44149,18.06,73854.5,-1.35,-37.57,-38.17,0,*50
1500005228.82,44150,18.06,73854.5,-1.35,-37.57,-38.29,0,*55
1500005230.1,44151,18.06,73852.3,-1.35,-37.39,-37.99,0,*58
1500005231.34,44152,18.06,73854.5,-1.35,-37.75,-38.35,0,*5A
1500005232.59,44153,18.06,73852.8,-1.35,-37.33,-37.81,0,*59
1500005233.88,44154,18.06,73856.0,-1.35,-37.21,-37.93,0,*5E
1500005235.13,44155,18.06,73854.0,-1.35,-37.63,-38.17,0,*5A
1500005236.39,44156,18.06,73852.0,-1.35,-37.93,-38.35,0,*56
1500005237.68,44157,18.06,73854.8,-1.35,-37.93,-38.49,0,*5C
1500005238.97,44158,18.06,73856.8,-1.35,-37.81,-38.29,0,*56
1500005240.23,44159,18.06,73856.5,-1.35,-37.93,-38.61,0,*58
1500005241.49,44160,18.06,73854.8,-1.35,-37.57,-38.29,0,*56
1500005242.74,44161,18.06,73852.3,-1.31,-37.63,-38.17,0,*59
1500005244.0,44162,18.06,73850.5,-1.31,-37.81,-38.35,0,*56
1500005245.28,44163,18.06,73852.3,-1.35,-37.99,-38.49,0,*51
1500005246.52,44164,18.06,73850.3,-1.31,-37.75,-38.35,0,*5B
1500005247.78,44165,18.06,73850.0,-1.35,-37.81,-38.35,0,*55
1500005249.04,44166,18.06,73854.8,-1.35,-37.93,-38.55,0,*53
1500005250.3,44167,18.06,73852.0,-1.35,-37.93,-38.55,0,*52
1500005251.53,44168,18.06,73848.8,-1.31,-37.75,-38.35,0,*57
1500005252.82,44169,18.06,73854.5,-1.35,-37.81,-38.49,0,*52
1500005254.1,44170,18.06,73848.5,-1.31,-37.93,-38.49,0,*5D
1500005255.38,44171,18.06,73850.8,-1.35,-37.93,-38.49,0,*58
1500005256.64,44172,18.06,73858.0,-1.35,-37.99,-38.55,0,*5C
1500005257.91,44173,18.06,73856.3,-1.35,-37.81,-38.55,0,*54
1500005259.2,44174,18.06,73858.3,-1.35,-37.63,-38.29,0,*54
1500005260.43,44175,18.06,73858.8,-1.35,-37.15,-37.75,0,*52
1500005261.72,44176,18.06,73848.5,-1.35,-37.21,-37.81,0,*5D
1500005263.0,44177,18.06,73850.3,-1.31,-37.39,-37.99,0,*58
1500005264.29,44178,18.06,73848.3,-1.31,-37.21,-37.63,0,*5B
1500005265.52,44179,18.06,73848.8,-1.31,-37.03,-37.57,0,*5D
1500005266.78,44180,18.06,73850.8,-1.31,-37.03,-37.63,0,*5C
1500005267.99,44181,18.06,73852.8,-1.29,-36.97,-37.57,0,*5F
1500005269.19,44182,18.06,73852.8,-1.29,-37.33,-37.87,0,*5E
1500005270.45,44183,18.06,73854.0,-1.27,-37.33,-37.93,0,*54
1500005271.7,44184,18.06,73852.8,-1.29,-37.51,-38.11,0,*5C
1500005272.93,44185,18.06,73852.3,-1.29,-37.33,-37.93,0,*5C
1500005274.16,44186,18.06,73852.8,-1.27,-37.27,-37.75,0,*5C
1500005275.41,44187,18.06,73854.3,-1.27,-37.33,-37.93,0,*50
1500005276.66,44188,18.06,73852.8,-1.27,-37.39,-38.05,0,*55
1500005277.87,44189,18.06,73852.0,-1.29,-37.75,-38.43,0,*50
1500005279.12,44190,18.06,73854.8,-1.27,-37.57,-38.23,0,*50
1500005280.38,44191,18.06,73854.3,-1.27,-37.57,-38.23,0,*51
1500005281.67,44192,18.06,73852.8,-1.27,-37.69,-38.23,0,*5F
1500005282.95,44193,18.06,73852.0,-1.27,-37.51,-38.11,0,*54
1500005284.17,44194,18.06,73850.8,-1.29,-37.39,-38.05,0,*56
1500005285.42,44195,18.06,73852.5,-1.27,-37.39,-38.05,0,*59
1500005286.66,44196,18.06,73852.5,-1.27,-37.33,-37.87,0,*55
1500005287.88,44197,18.06,73854.0,-1.29,-37.33,-37.93,0,*5F
1500005289.11,44198,18.06,73852.0,-1.25,-37.69,-38.43,0,*51
1500005290.37,44199,18.06,73852.8,-1.27,-37.75,-38.29,0,*53
1500005291.63,44200,18.06,73854.5,-1.27,-37.57,-38.23,0,*5A
1500005292.82,44201,18.06,73852.3,-1.25,-37.45,-38.05,0,*5E
1500005294.08,44202,18.06,73852.5,-1.27,-37.75,-38.29,0,*52
1500005295.31,44203,18.06,73856.0,-1.27,-37.75,-38.43,0,*5F
1500005296.57,44204,18.06,73852.0,-1.27,-37.75,-38.29,0,*54
1500005297.83,44205,18.06,73852.8,-1.27,-37.69,-38.43,0,*54
1500005299.09,44206,18.06,73852.0,-1.29,-37.93,-38.49,0,*56
1500005300.35,44207,18.06,73852.0,-1.27,-37.93,-38.55,0,*54
1500005301.58,44208,18.06,73852.0,-1.25,-37.87,-38.49,0,*51